Retour au catalogue

FENGYUN 1C DEB

ActifSSO
NORAD 29827·DEBRIS·🇨🇳 China

Lancé May 10, 1999 depuis Taiyuan Satellite Launch Center

Loading…

Prochains Passages (prochaines 24 heures)

TLE

FraisSource: Space-Track

Époque: Sep 14, 2026, 11:28 UTC

1 29827U 99025DV  26257.47784880  .00000349  00000-0  17694-3 0  9997
2 29827  98.6230 247.1776 0024301 240.2445 271.8557 14.22033830 17710

Suivez FENGYUN 1C DEB en temps réel avec AllMySat

Download on the App Store